Regional Weather Roundup
Issued by NWS State College, PA

Current Version | Previous Version | Text Only | Print | Product List | Glossary On
Versions: 1 2 3 4 5 6 7 8 9 10 11 12 13 14 15 16 17 18 19 20 21 22 23 24 25 26 27 28 29 30 31 32 33 34 35 36 37 38 39 40 41 42 43 44 45 46 47 48 49 50
000
ASUS41 KCTP 160210
RWRCTP

REGIONAL WEATHER ROUNDUP
NATIONAL WEATHER SERVICE STATE COLLEGE PA
1000 PM EDT MON OCT 15 2018

Note: "fair" indicates few or no clouds below 12,000 feet with no
significant weather and/or obstructions to visibility.

* = STATION THAT DOES NOT REPORT PRECIPITATION /E.G. RAIN...SNOW...ETC/
    THUNDER OR FOG.

PAZ002>004-007>009-013>016-020>023-029>032-160300-
WESTERN PENNSYLVANIA

CITY           SKY/WX    TMP DP  RH WIND       PRES   REMARKS
ERIE           MOCLDY    49  32  52 NW17G26   30.14R
MEADVILLE      MOCLDY    45  38  76 W12       30.13R
FRANKLIN*      CLOUDY    45  39  79 W7        30.13R
NEW CASTLE     FAIR      47  39  74 W10       30.17R
BEAVER COUNTY  NOT AVBL
BUTLER*        FAIR      48  42  80 W6        30.15R
PITTSBURGH INT CLOUDY    48  43  82 W10       30.15R
PITTSBURGH     CLOUDY    49  43  80 NW13G26   30.13R
INDIANA*       CLOUDY    50  46  87 NW6G16    30.14R
LATROBE        MOCLDY    52  48  87 NW9       30.14R
WASHINGTON CO* MOCLDY    50  45  83 W12       30.19R
$$

PAZ004>006-010>012-017>019-024>028-033>037-041-042-045-046-049>053-160300-
CENTRAL PENNSYLVANIA

CITY           SKY/WX    TMP DP  RH WIND       PRES   REMARKS
BRADFORD       MOCLDY    45  36  70 NW20G28   30.05R
DUBOIS         MOCLDY    46  41  82 W17G24    30.08R
CLEARFIELD     CLOUDY    50  44  80 W13G29    30.07R
JOHNSTOWN      LGT RAIN  48  45  89 NW21G35   30.08R
ALTOONA        LGT RAIN  55  47  74 NW14G20   30.07R
STATE COLLEGE  LGT RAIN  52  46  82 W12G21    30.04R
WILLIAMSPORT   CLOUDY    57  50  77 W10G20    29.97R
SELINSGROVE    CLOUDY    59  50  72 W7        30.00R
FT INDIANTOWN  CLOUDY    61  54  77 NW13G30   29.97R
CAPITAL CITY   CLOUDY    65  56  72 NW9       29.98R
HARRISBURG     CLOUDY    64  57  78 NW16      29.97R
YORK           CLOUDY    64  62  93 W8        29.98R
$$

PAZ038>040-043-044-047-048-054-055-060>062-067>071-160300-
EASTERN PENNSYLVANIA

CITY           SKY/WX    TMP DP  RH WIND       PRES   REMARKS
SCRANTON       LGT RAIN  58  53  84 SW12G22   29.94R
MOUNT POCONO   LGT RAIN  54  54 100 W18G28    29.93R
ALLENTOWN      CLOUDY    65  59  81 W12G21    29.93R
QUAKERTOWN*    MOCLDY    64  64 100 W10       29.93R
READING        CLOUDY    64  62  93 W9        29.94R
LANCASTER      LGT RAIN  66  63  90 W15       29.96R
COATESVILLE    MOCLDY    66  64  94 SW9       29.95S
POTTSTOWN      CLOUDY    67  63  87 W9G21     29.94R
BLUE BELL      FAIR      66  63  88 W7G17     29.92S
DOYLESTOWN     MOCLDY    67  62  84 MISG      29.89S
WILLOW GROVE   NOT AVBL
NORTH PHILA    MOCLDY    71  64  78 SW13      29.92S
PHILADELPHIA   CLOUDY    67  64  90 SW13      29.92S
$$



USA.gov is the U.S. government's official web portal to all federal, state and local government web resources and services.